• In Russia
  • List of Countries
  • For 7 days
  • Water Temperature
  • Satellite Maps
  • Weather Map
  • Weather Widgets
  • user-avatar
    Login

    Hourly Weather Belfast

    Today, 11 December, Monday

    Time Temperature Precipitation Wind Pressure Humidity
    00:00 -2°C° 0 mm 3 mps 738 mmHg 84%
    01:00 -2°C° 0 mm 3 mps 738 mmHg 85%
    02:00 -2°C° 0 mm 2 mps 738 mmHg 86%
    03:00 -1°C° 0 mm 2 mps 738 mmHg 87%
    04:00 -1°C° 0 mm 3 mps 739 mmHg 87%
    05:00 -1°C° 0 mm 3 mps 739 mmHg 87%
    06:00 -1°C° 0 mm 3 mps 739 mmHg 86%
    07:00 -1°C° 0 mm 4 mps 740 mmHg 86%
    08:00 0°C° 0 mm 5 mps 740 mmHg 85%
    09:00 +1°C° 0 mm 5 mps 741 mmHg 84%
    10:00 +1°C° 0 mm 6 mps 742 mmHg 84%
    11:00 +2°C° 0 mm 6 mps 742 mmHg 84%
    12:00 +3°C° 0 mm 6 mps 743 mmHg 84%
    13:00 +3°C° 0.2 mm 6 mps 743 mmHg 83%
    14:00 +3°C° 0.2 mm 6 mps 744 mmHg 83%
    15:00 +3°C° 0.2 mm 7 mps 744 mmHg 82%
    16:00 +2°C° 0.1 mm 6 mps 745 mmHg 83%
    17:00 +2°C° 0.1 mm 6 mps 746 mmHg 83%
    18:00 +2°C° 0.1 mm 6 mps 747 mmHg 84%
    19:00 +1°C° 0 mm 5 mps 747 mmHg 84%
    20:00 +1°C° 0 mm 5 mps 748 mmHg 85%
    21:00 +1°C° 0 mm 5 mps 749 mmHg 85%
    22:00 +1°C° 0 mm 5 mps 749 mmHg 86%
    23:00 +1°C° 0 mm 4 mps 750 mmHg 87%

    Tomorrow, 12 December, Tuesday

    Time Temperature Precipitation Wind Pressure Humidity
    00:00 +1°C° 0 mm 4 mps 750 mmHg 87%
    01:00 +2°C° 0 mm 3 mps 750 mmHg 87%
    02:00 +1°C° 0 mm 3 mps 751 mmHg 88%
    03:00 +1°C° 0 mm 3 mps 751 mmHg 88%
    04:00 +1°C° 0 mm 3 mps 751 mmHg 89%
    05:00 +1°C° 0 mm 3 mps 751 mmHg 90%
    06:00 +1°C° 0 mm 3 mps 751 mmHg 90%
    07:00 +1°C° 0 mm 3 mps 751 mmHg 91%
    08:00 0°C° 0 mm 4 mps 751 mmHg 91%
    09:00 +1°C° 0 mm 4 mps 751 mmHg 91%
    10:00 +1°C° 0 mm 4 mps 751 mmHg 90%
    11:00 +2°C° 0 mm 5 mps 750 mmHg 89%
    12:00 +2°C° 0 mm 6 mps 750 mmHg 88%
    13:00 +2°C° 0.6 mm 7 mps 749 mmHg 88%
    14:00 +1°C° 0.6 mm 8 mps 749 mmHg 89%
    15:00 +1°C° 0.6 mm 8 mps 748 mmHg 90%
    16:00 +2°C° 0.3 mm 8 mps 748 mmHg 90%
    17:00 +3°C° 0.3 mm 7 mps 747 mmHg 90%
    18:00 +4°C° 0.3 mm 7 mps 747 mmHg 91%
    19:00 +3°C° 0 mm 7 mps 747 mmHg 89%
    20:00 +3°C° 0 mm 6 mps 748 mmHg 88%
    21:00 +2°C° 0 mm 6 mps 748 mmHg 87%
    22:00 +2°C° 0 mm 6 mps 748 mmHg 88%
    23:00 +2°C° 0 mm 6 mps 748 mmHg 89%

    Day after tomorrow, 13 December, Wednesday

    Time Temperature Precipitation Wind Pressure Humidity
    00:00 +2°C° 0 mm 6 mps 748 mmHg 90%
    01:00 +2°C° 0.1 mm 7 mps 747 mmHg 90%
    02:00 +2°C° 0.1 mm 7 mps 747 mmHg 90%
    03:00 +3°C° 0.1 mm 7 mps 747 mmHg 91%
    04:00 +3°C° 0.1 mm 7 mps 746 mmHg 91%
    05:00 +3°C° 0.1 mm 7 mps 745 mmHg 91%
    06:00 +2°C° 0.1 mm 7 mps 745 mmHg 91%
    07:00 +2°C° 0.3 mm 7 mps 745 mmHg 88%
    08:00 +1°C° 0.3 mm 8 mps 744 mmHg 86%
    09:00 +1°C° 0.3 mm 8 mps 744 mmHg 83%
    10:00 +1°C° 0.2 mm 9 mps 744 mmHg 81%
    11:00 +1°C° 0.2 mm 9 mps 744 mmHg 78%
    12:00 +1°C° 0.2 mm 9 mps 744 mmHg 76%
    13:00 +1°C° 0.1 mm 9 mps 743 mmHg 76%
    14:00 +1°C° 0.1 mm 8 mps 742 mmHg 76%
    15:00 +1°C° 0.1 mm 8 mps 741 mmHg 76%
    16:00 +1°C° 0.8 mm 9 mps 741 mmHg 79%
    17:00 0°C° 0.8 mm 10 mps 740 mmHg 82%
    18:00 0°C° 0.8 mm 10 mps 739 mmHg 85%
    19:00 0°C° 0.4 mm 10 mps 739 mmHg 82%
    20:00 -2°C° 0.4 mm 10 mps 739 mmHg 80%
    21:00 -2°C° 0.4 mm 10 mps 739 mmHg 77%
    22:00 -2°C° 0.2 mm 10 mps 739 mmHg 78%
    23:00 -1°C° 0.2 mm 9 mps 739 mmHg 79%

    14 December, Thursday

    Time Temperature Precipitation Wind Pressure Humidity
    00:00 -1°C° 0.2 mm 9 mps 739 mmHg 79%
    01:00 -1°C° 0.2 mm 9 mps 739 mmHg 80%
    02:00 -1°C° 0.2 mm 9 mps 739 mmHg 81%
    03:00 -1°C° 0.2 mm 9 mps 738 mmHg 82%
    04:00 -1°C° 0.1 mm 8 mps 738 mmHg 82%
    05:00 -1°C° 0.1 mm 8 mps 738 mmHg 83%
    06:00 -1°C° 0.1 mm 8 mps 738 mmHg 84%
    07:00 -1°C° 0 mm 8 mps 737 mmHg 84%
    08:00 0°C° 0 mm 8 mps 737 mmHg 85%
    09:00 0°C° 0 mm 8 mps 737 mmHg 86%
    10:00 0°C° 0.2 mm 9 mps 736 mmHg 85%
    11:00 +1°C° 0.2 mm 10 mps 735 mmHg 85%
    12:00 +1°C° 0.2 mm 10 mps 735 mmHg 85%
    13:00 +2°C° 0.1 mm 10 mps 734 mmHg 84%
    14:00 +2°C° 0.1 mm 9 mps 734 mmHg 84%
    15:00 +2°C° 0.1 mm 8 mps 734 mmHg 83%
    16:00 +2°C° 0.1 mm 9 mps 736 mmHg 81%
    17:00 +2°C° 0.1 mm 10 mps 737 mmHg 79%
    18:00 +2°C° 0.1 mm 10 mps 738 mmHg 77%
    19:00 +1°C° 0 mm 10 mps 740 mmHg 76%
    20:00 +1°C° 0 mm 9 mps 741 mmHg 76%
    21:00 0°C° 0 mm 8 mps 743 mmHg 75%
    22:00 0°C° 0 mm 8 mps 744 mmHg 76%
    23:00 +1°C° 0 mm 8 mps 745 mmHg 78%

    15 December, Friday

    Time Temperature Precipitation Wind Pressure Humidity
    00:00 +2°C° 0 mm 7 mps 747 mmHg 79%
    01:00 +1°C° 0.1 mm 8 mps 747 mmHg 79%
    02:00 +1°C° 0.1 mm 8 mps 748 mmHg 78%
    03:00 +1°C° 0.1 mm 8 mps 748 mmHg 77%
    04:00 +1°C° 0 mm 8 mps 749 mmHg 76%
    05:00 +1°C° 0 mm 8 mps 750 mmHg 76%
    06:00 +1°C° 0 mm 8 mps 751 mmHg 75%
    07:00 0°C° 0 mm 8 mps 751 mmHg 76%
    08:00 0°C° 0 mm 7 mps 752 mmHg 77%
    09:00 0°C° 0 mm 7 mps 753 mmHg 78%
    10:00 +2°C° 0.1 mm 7 mps 754 mmHg 77%
    11:00 +2°C° 0.1 mm 7 mps 754 mmHg 76%
    12:00 +3°C° 0.1 mm 7 mps 755 mmHg 75%
    13:00 +3°C° 0.1 mm 7 mps 755 mmHg 75%
    14:00 +3°C° 0.1 mm 7 mps 755 mmHg 76%
    15:00 +2°C° 0.1 mm 7 mps 755 mmHg 76%
    16:00 +2°C° 0.1 mm 7 mps 756 mmHg 77%
    17:00 0°C° 0.1 mm 7 mps 756 mmHg 78%
    18:00 0°C° 0.1 mm 7 mps 757 mmHg 79%
    19:00 +1°C° 0.1 mm 6 mps 757 mmHg 80%
    20:00 +1°C° 0.1 mm 6 mps 758 mmHg 80%
    21:00 -1°C° 0.1 mm 6 mps 758 mmHg 80%
    22:00 0°C° 0 mm 5 mps 758 mmHg 81%
    23:00 0°C° 0 mm 5 mps 758 mmHg 82%

    16 December, Saturday

    Time Temperature Precipitation Wind Pressure Humidity
    00:00 0°C° 0 mm 5 mps 758 mmHg 83%
    01:00 -1°C° 0 mm 4 mps 758 mmHg 83%
    02:00 -1°C° 0 mm 4 mps 758 mmHg 84%
    03:00 -1°C° 0 mm 4 mps 758 mmHg 85%
    04:00 -1°C° 0 mm 4 mps 758 mmHg 85%
    05:00 0°C° 0 mm 4 mps 758 mmHg 85%
    06:00 0°C° 0 mm 5 mps 758 mmHg 85%
    07:00 0°C° 0.1 mm 5 mps 758 mmHg 87%
    08:00 +1°C° 0.1 mm 5 mps 757 mmHg 88%
    09:00 +1°C° 0.1 mm 5 mps 757 mmHg 89%
    10:00 +1°C° 0.2 mm 5 mps 757 mmHg 89%
    11:00 +2°C° 0.2 mm 5 mps 756 mmHg 89%
    12:00 +3°C° 0.2 mm 5 mps 756 mmHg 89%
    13:00 +3°C° 0.3 mm 6 mps 755 mmHg 90%
    14:00 +3°C° 0.3 mm 6 mps 754 mmHg 91%
    15:00 +3°C° 0.3 mm 6 mps 754 mmHg 92%
    16:00 +3°C° 0.3 mm 6 mps 753 mmHg 93%
    17:00 +3°C° 0.3 mm 5 mps 753 mmHg 94%
    18:00 +2°C° 0.3 mm 5 mps 753 mmHg 95%
    19:00 +2°C° 0 mm 5 mps 753 mmHg 95%
    20:00 +3°C° 0 mm 5 mps 753 mmHg 95%
    21:00 +3°C° 0 mm 5 mps 754 mmHg 95%
    22:00 +4°C° 0 mm 4 mps 754 mmHg 95%
    23:00 +4°C° 0 mm 4 mps 754 mmHg 95%
    Show more